03/05/2024 15:45:00,0.195
03/05/2024 16:00:00,0.196
03/05/2024 16:15:00,0.199
03/05/2024 16:30:00,0.199
03/05/2024 16:45:00,0.199
03/05/2024 17:00:00,0.199
03/05/2024 17:15:00,0.199
03/05/2024 17:30:00,0.199
03/05/2024 17:45:00,0.199
03/05/2024 18:00:00,0.199
03/05/2024 18:15:00,0.198
03/05/2024 18:30:00,0.197
03/05/2024 18:45:00,0.197
03/05/2024 19:00:00,0.196
03/05/2024 19:15:00,0.196
03/05/2024 19:30:00,0.196
03/05/2024 19:45:00,0.196
03/05/2024 20:00:00,0.197
03/05/2024 20:15:00,0.197
03/05/2024 20:30:00,0.197
03/05/2024 20:45:00,0.197
03/05/2024 21:00:00,0.196
03/05/2024 21:15:00,0.196
03/05/2024 21:30:00,0.196
03/05/2024 21:45:00,0.197
03/05/2024 22:00:00,0.198
03/05/2024 22:15:00,0.2
03/05/2024 22:30:00,0.201
03/05/2024 22:45:00,0.203
03/05/2024 23:00:00,0.204
03/05/2024 23:15:00,0.204
03/05/2024 23:30:00,0.204
03/05/2024 23:45:00,0.203
04/05/2024 00:00:00,0.203
04/05/2024 00:15:00,0.202
04/05/2024 00:30:00,0.201
04/05/2024 00:45:00,0.201
04/05/2024 01:00:00,0.201
04/05/2024 01:15:00,0.2
04/05/2024 01:30:00,0.2
04/05/2024 01:45:00,0.2
04/05/2024 02:00:00,0.2
04/05/2024 02:15:00,0.2
04/05/2024 02:30:00,0.2
04/05/2024 02:45:00,0.2
04/05/2024 03:00:00,0.2
04/05/2024 03:15:00,0.2
04/05/2024 03:30:00,0.2
04/05/2024 03:45:00,0.2
04/05/2024 04:00:00,0.2
04/05/2024 04:15:00,0.2
04/05/2024 04:30:00,0.2
04/05/2024 04:45:00,0.2
04/05/2024 05:00:00,0.2
04/05/2024 05:15:00,0.2
04/05/2024 05:30:00,0.2
04/05/2024 05:45:00,0.2
04/05/2024 06:00:00,0.2
04/05/2024 06:15:00,0.2
04/05/2024 06:30:00,0.2
04/05/2024 06:45:00,0.2
04/05/2024 07:00:00,0.2
04/05/2024 07:15:00,0.201
04/05/2024 07:30:00,0.201
04/05/2024 07:45:00,0.201
04/05/2024 08:00:00,0.201
04/05/2024 08:15:00,0.201
04/05/2024 08:30:00,0.201
04/05/2024 08:45:00,0.201
04/05/2024 09:00:00,0.201
04/05/2024 09:15:00,0.201
04/05/2024 09:30:00,0.201
04/05/2024 09:45:00,0.201
04/05/2024 10:00:00,0.201
04/05/2024 10:15:00,0.201
04/05/2024 10:30:00,0.201
04/05/2024 10:45:00,0.2
04/05/2024 11:00:00,0.2
04/05/2024 11:15:00,0.2
04/05/2024 11:30:00,0.2
04/05/2024 11:45:00,0.2
04/05/2024 12:00:00,0.2
04/05/2024 12:15:00,0.2
04/05/2024 12:30:00,0.2
04/05/2024 12:45:00,0.2
04/05/2024 13:00:00,0.2
04/05/2024 13:15:00,0.2
04/05/2024 13:30:00,0.2
04/05/2024 13:45:00,0.2
04/05/2024 14:00:00,0.2
04/05/2024 14:15:00,0.2
04/05/2024 14:30:00,0.2
04/05/2024 14:45:00,0.2
04/05/2024 15:00:00,0.2
04/05/2024 15:15:00,0.2
04/05/2024 15:30:00,0.2
04/05/2024 15:45:00,0.2
04/05/2024 16:00:00,0.2
04/05/2024 16:15:00,0.2
04/05/2024 16:30:00,0.2
04/05/2024 16:45:00,0.2
04/05/2024 17:00:00,0.2
04/05/2024 17:15:00,0.2
04/05/2024 17:30:00,0.2
04/05/2024 17:45:00,0.2
04/05/2024 18:00:00,0.199
04/05/2024 18:15:00,0.199
04/05/2024 18:30:00,0.199
04/05/2024 18:45:00,0.199
04/05/2024 19:00:00,0.199
04/05/2024 19:15:00,0.199
04/05/2024 19:30:00,0.199
04/05/2024 19:45:00,0.199
04/05/2024 20:00:00,0.199
04/05/2024 20:15:00,0.199
04/05/2024 20:30:00,0.199
04/05/2024 20:45:00,0.199
04/05/2024 21:00:00,0.199
04/05/2024 21:15:00,0.199
04/05/2024 21:30:00,0.199
04/05/2024 21:45:00,0.199
04/05/2024 22:00:00,0.199
04/05/2024 22:15:00,0.199
04/05/2024 22:30:00,0.199
04/05/2024 22:45:00,0.199
04/05/2024 23:00:00,0.199
04/05/2024 23:15:00,0.199
04/05/2024 23:30:00,0.199
04/05/2024 23:45:00,0.199
05/05/2024 00:00:00,0.199
05/05/2024 00:15:00,0.199
05/05/2024 00:30:00,0.199
05/05/2024 00:45:00,0.199
05/05/2024 01:00:00,0.199
05/05/2024 01:15:00,0.199
05/05/2024 01:30:00,0.199
05/05/2024 01:45:00,0.199
05/05/2024 02:00:00,0.199
05/05/2024 02:15:00,0.199
05/05/2024 02:30:00,0.199
05/05/2024 02:45:00,0.199
05/05/2024 03:00:00,0.199
05/05/2024 03:15:00,0.199
05/05/2024 03:30:00,0.199
05/05/2024 03:45:00,0.199
05/05/2024 04:00:00,0.199
05/05/2024 04:15:00,0.199
05/05/2024 04:30:00,0.199
05/05/2024 04:45:00,0.199
05/05/2024 05:00:00,0.199
05/05/2024 05:15:00,0.199
05/05/2024 05:30:00,0.199
05/05/2024 05:45:00,0.199
05/05/2024 06:00:00,0.199
05/05/2024 06:15:00,0.199
05/05/2024 06:30:00,0.199
05/05/2024 06:45:00,0.199
05/05/2024 07:00:00,0.199
05/05/2024 07:15:00,0.199
05/05/2024 07:30:00,0.199
05/05/2024 07:45:00,0.198
05/05/2024 08:00:00,0.198
05/05/2024 08:15:00,0.198
05/05/2024 08:30:00,0.198
05/05/2024 08:45:00,0.197
05/05/2024 09:00:00,0.197
05/05/2024 09:15:00,0.197
05/05/2024 09:30:00,0.197
05/05/2024 09:45:00,0.197
05/05/2024 10:00:00,0.196
05/05/2024 10:15:00,0.196
05/05/2024 10:30:00,0.197
05/05/2024 10:45:00,0.197
05/05/2024 11:00:00,0.199
05/05/2024 11:15:00,0.199
05/05/2024 11:30:00,0.199
05/05/2024 11:45:00,0.199
05/05/2024 12:00:00,0.199
05/05/2024 12:15:00,0.199
05/05/2024 12:30:00,0.199
05/05/2024 12:45:00,0.199
05/05/2024 13:00:00,0.199
05/05/2024 13:15:00,0.199
05/05/2024 13:30:00,0.199
05/05/2024 13:45:00,0.199
05/05/2024 14:00:00,0.199
05/05/2024 14:15:00,0.198
05/05/2024 14:30:00,0.198
05/05/2024 14:45:00,0.198
05/05/2024 15:00:00,0.198
05/05/2024 15:15:00,0.198
05/05/2024 15:30:00,0.198
05/05/2024 15:45:00,0.198
05/05/2024 16:00:00,0.198
05/05/2024 16:15:00,0.198
05/05/2024 16:30:00,0.198
05/05/2024 16:45:00,0.198
05/05/2024 17:00:00,0.198
05/05/2024 17:15:00,0.198
05/05/2024 17:30:00,0.198
05/05/2024 17:45:00,0.198
05/05/2024 18:00:00,0.198
05/05/2024 18:15:00,0.198
05/05/2024 18:30:00,0.198
05/05/2024 18:45:00,0.198
05/05/2024 19:00:00,0.198
05/05/2024 19:15:00,0.198
05/05/2024 19:30:00,0.198
05/05/2024 19:45:00,0.198
05/05/2024 20:00:00,0.198
05/05/2024 20:15:00,0.198
05/05/2024 20:30:00,0.198
05/05/2024 20:45:00,0.198
05/05/2024 21:00:00,0.198
05/05/2024 21:15:00,0.198
05/05/2024 21:30:00,0.198
05/05/2024 21:45:00,0.198
05/05/2024 22:00:00,0.198
05/05/2024 22:15:00,0.198
05/05/2024 22:30:00,0.198
05/05/2024 22:45:00,0.198
05/05/2024 23:00:00,0.198
05/05/2024 23:15:00,0.198
05/05/2024 23:30:00,0.198
05/05/2024 23:45:00,0.198
06/05/2024 00:00:00,0.198
06/05/2024 00:15:00,0.198
06/05/2024 00:30:00,0.198
06/05/2024 00:45:00,0.198
06/05/2024 01:00:00,0.198
06/05/2024 01:15:00,0.198
06/05/2024 01:30:00,0.198
06/05/2024 01:45:00,0.198
06/05/2024 02:00:00,0.198
06/05/2024 02:15:00,0.198
06/05/2024 02:30:00,0.198
06/05/2024 02:45:00,0.198
06/05/2024 03:00:00,0.198
06/05/2024 03:15:00,0.198
06/05/2024 03:30:00,0.198
06/05/2024 03:45:00,0.198
06/05/2024 04:00:00,0.198
06/05/2024 04:15:00,0.198
06/05/2024 04:30:00,0.198
06/05/2024 04:45:00,0.198
06/05/2024 05:00:00,0.197
06/05/2024 05:15:00,0.197
06/05/2024 05:30:00,0.197
06/05/2024 05:45:00,0.197
06/05/2024 06:00:00,0.197
06/05/2024 06:15:00,0.197
06/05/2024 06:30:00,0.198
06/05/2024 06:45:00,0.198
06/05/2024 07:00:00,0.198
06/05/2024 07:15:00,0.198
06/05/2024 07:30:00,0.198
06/05/2024 07:45:00,0.199
06/05/2024 08:00:00,0.2
06/05/2024 08:15:00,0.201
06/05/2024 08:30:00,0.202
06/05/2024 08:45:00,0.203
06/05/2024 09:00:00,0.204
06/05/2024 09:15:00,0.205
06/05/2024 09:30:00,0.205
06/05/2024 09:45:00,0.206
06/05/2024 10:00:00,0.206
06/05/2024 10:15:00,0.206
06/05/2024 10:30:00,0.207
06/05/2024 10:45:00,0.208
06/05/2024 11:00:00,0.21
06/05/2024 11:15:00,0.212
06/05/2024 11:30:00,0.213
06/05/2024 11:45:00,0.213
06/05/2024 12:00:00,0.213
06/05/2024 12:15:00,0.212
06/05/2024 12:30:00,0.212
06/05/2024 12:45:00,0.211
06/05/2024 13:00:00,0.211
06/05/2024 13:15:00,0.212
06/05/2024 13:30:00,0.214
06/05/2024 13:45:00,0.215
06/05/2024 14:00:00,0.218
06/05/2024 14:15:00,0.219
06/05/2024 14:30:00,0.22
06/05/2024 14:45:00,0.221
06/05/2024 15:00:00,0.221
06/05/2024 15:15:00,0.22
06/05/2024 15:30:00,0.22
06/05/2024 15:45:00,0.219
06/05/2024 16:00:00,0.218
06/05/2024 16:15:00,0.218
06/05/2024 16:30:00,0.217
06/05/2024 16:45:00,0.217
06/05/2024 17:00:00,0.216
06/05/2024 17:15:00,0.216
06/05/2024 17:30:00,0.216
06/05/2024 17:45:00,0.215
06/05/2024 18:00:00,0.215
06/05/2024 18:15:00,0.215
06/05/2024 18:30:00,0.215
06/05/2024 18:45:00,0.215
06/05/2024 19:00:00,0.215
06/05/2024 19:15:00,0.215
06/05/2024 19:30:00,0.215
06/05/2024 19:45:00,0.215
06/05/2024 20:00:00,0.215
06/05/2024 20:15:00,0.215
06/05/2024 20:30:00,0.215
06/05/2024 20:45:00,0.215
06/05/2024 21:00:00,0.215
06/05/2024 21:15:00,0.216
06/05/2024 21:30:00,0.216
06/05/2024 21:45:00,0.216
06/05/2024 22:00:00,0.217
06/05/2024 22:15:00,0.217
06/05/2024 22:30:00,0.217
06/05/2024 22:45:00,0.217
06/05/2024 23:00:00,0.217
06/05/2024 23:15:00,0.217
06/05/2024 23:30:00,0.216
06/05/2024 23:45:00,0.216
07/05/2024 00:00:00,0.216
07/05/2024 00:15:00,0.216
07/05/2024 00:30:00,0.216
07/05/2024 00:45:00,0.216
07/05/2024 01:00:00,0.216
07/05/2024 01:15:00,0.216
07/05/2024 01:30:00,0.215
07/05/2024 01:45:00,0.215
07/05/2024 02:00:00,0.215
07/05/2024 02:15:00,0.215
07/05/2024 02:30:00,0.215
07/05/2024 02:45:00,0.214
07/05/2024 03:00:00,0.214
07/05/2024 03:15:00,0.214
07/05/2024 03:30:00,0.213
07/05/2024 03:45:00,0.213
07/05/2024 04:00:00,0.213
07/05/2024 04:15:00,0.213
07/05/2024 04:30:00,0.212
07/05/2024 04:45:00,0.212
07/05/2024 05:00:00,0.212
07/05/2024 05:15:00,0.212
07/05/2024 05:30:00,0.211
07/05/2024 05:45:00,0.211
07/05/2024 06:00:00,0.211
07/05/2024 06:15:00,0.21
07/05/2024 06:30:00,0.21
07/05/2024 06:45:00,0.21
07/05/2024 07:00:00,0.21
07/05/2024 07:15:00,0.209
07/05/2024 07:30:00,0.209
07/05/2024 07:45:00,0.209
07/05/2024 08:00:00,0.209
07/05/2024 08:15:00,0.208
07/05/2024 08:30:00,0.208
07/05/2024 08:45:00,0.208
07/05/2024 09:00:00,0.208
07/05/2024 09:15:00,0.208
07/05/2024 09:30:00,0.208
07/05/2024 09:45:00,0.208
07/05/2024 10:00:00,0.208
07/05/2024 10:15:00,0.208
07/05/2024 10:30:00,0.208
07/05/2024 10:45:00,0.208
07/05/2024 11:00:00,0.208
07/05/2024 11:15:00,0.208
07/05/2024 11:30:00,0.207
07/05/2024 11:45:00,0.207
07/05/2024 12:00:00,0.207
07/05/2024 12:15:00,0.207
07/05/2024 12:30:00,0.207
07/05/2024 12:45:00,0.207
07/05/2024 13:00:00,0.207
07/05/2024 13:15:00,0.207
07/05/2024 13:30:00,0.207
07/05/2024 13:45:00,0.207
07/05/2024 14:00:00,0.207
07/05/2024 14:15:00,0.207
07/05/2024 14:30:00,0.206
07/05/2024 14:45:00,0.206
07/05/2024 15:00:00,0.206
07/05/2024 15:15:00,0.205
07/05/2024 15:30:00,0.205
07/05/2024 15:45:00,0.205
07/05/2024 16:00:00,0.204
07/05/2024 16:15:00,0.204
07/05/2024 16:30:00,0.204
07/05/2024 16:45:00,0.203
07/05/2024 17:00:00,0.203
07/05/2024 17:15:00,0.203
07/05/2024 17:30:00,0.203
07/05/2024 17:45:00,0.202
07/05/2024 18:00:00,0.202
07/05/2024 18:15:00,0.202
07/05/2024 18:30:00,0.202
07/05/2024 18:45:00,0.202
07/05/2024 19:00:00,0.202
07/05/2024 19:15:00,0.201
07/05/2024 19:30:00,0.201
07/05/2024 19:45:00,0.201
07/05/2024 20:00:00,0.201
07/05/2024 20:15:00,0.201
07/05/2024 20:30:00,0.201
07/05/2024 20:45:00,0.201
07/05/2024 21:00:00,0.201
07/05/2024 21:15:00,0.201
07/05/2024 21:30:00,0.201
07/05/2024 21:45:00,0.2
07/05/2024 22:00:00,0.2
07/05/2024 22:15:00,0.2
07/05/2024 22:30:00,0.2
07/05/2024 22:45:00,0.2
07/05/2024 23:00:00,0.2
07/05/2024 23:15:00,0.2
07/05/2024 23:30:00,0.2
07/05/2024 23:45:00,0.2
08/05/2024 00:00:00,0.2
08/05/2024 00:15:00,0.2
08/05/2024 00:30:00,0.2
08/05/2024 00:45:00,0.199
08/05/2024 01:00:00,0.199
08/05/2024 01:15:00,0.199
08/05/2024 01:30:00,0.199
08/05/2024 01:45:00,0.199
08/05/2024 02:00:00,0.199
08/05/2024 02:15:00,0.199
08/05/2024 02:30:00,0.198
08/05/2024 02:45:00,0.198
08/05/2024 03:00:00,0.198
08/05/2024 03:15:00,0.198
08/05/2024 03:30:00,0.198
08/05/2024 03:45:00,0.198
08/05/2024 04:00:00,0.198
08/05/2024 04:15:00,0.198
08/05/2024 04:30:00,0.197
08/05/2024 04:45:00,0.197
08/05/2024 05:00:00,0.197
08/05/2024 05:15:00,0.196
08/05/2024 05:30:00,0.196
08/05/2024 05:45:00,0.195
08/05/2024 06:00:00,0.195
08/05/2024 06:15:00,0.195
08/05/2024 06:30:00,0.195
08/05/2024 06:45:00,0.194
08/05/2024 07:00:00,0.194
08/05/2024 07:15:00,0.194
08/05/2024 07:30:00,0.194
08/05/2024 07:45:00,0.194
08/05/2024 08:00:00,0.194
08/05/2024 08:15:00,0.193
08/05/2024 08:30:00,0.194
08/05/2024 08:45:00,0.194
08/05/2024 09:00:00,0.194
08/05/2024 09:15:00,0.194
08/05/2024 09:30:00,0.193
08/05/2024 09:45:00,0.194
08/05/2024 10:00:00,0.194
08/05/2024 10:15:00,0.194
08/05/2024 10:30:00,0.194
08/05/2024 10:45:00,0.194
08/05/2024 11:00:00,0.195
08/05/2024 11:15:00,0.194
08/05/2024 11:30:00,0.194
08/05/2024 11:45:00,0.194
08/05/2024 12:00:00,0.194
08/05/2024 12:15:00,0.194
08/05/2024 12:30:00,0.194
08/05/2024 12:45:00,0.193
08/05/2024 13:00:00,0.194
08/05/2024 13:15:00,0.194
08/05/2024 13:30:00,0.194
08/05/2024 13:45:00,0.194
08/05/2024 14:00:00,0.194
